EDT,Max TemperatureF,Mean TemperatureF,Min TemperatureF,Max Dew PointF,MeanDew PointF,Min DewpointF,Max Humidity, Mean Humidity, Min Humidity, Max Sea Level PressureIn, Mean Sea Level PressureIn, Min Sea Level PressureIn, Max VisibilityMiles, Mean VisibilityMiles, Min VisibilityMiles, Max Wind SpeedMPH, Mean Wind SpeedMPH, Max Gust SpeedMPH,PrecipitationIn, CloudCover, Events, WindDirDegrees
2013-4-1,30,24,17,18,9,3,74,55,34,30.10,30.00,29.83,10,9,0,18,11,28,0.00,3,,303
2013-4-2,35,25,15,10,7,3,68,49,26,30.27,30.16,30.07,10,10,10,18,8,25,0.00,2,,301
2013-4-3,33,24,15,21,12,5,69,55,41,30.45,30.34,30.22,10,10,10,17,7,24,0.00,0,,241
2013-4-4,50,39,30,28,23,19,75,58,34,30.20,30.01,29.89,10,10,8,16,12,24,0.00,4,,228
2013-4-5,37,30,23,25,17,10,80,58,33,30.27,30.20,30.06,10,10,10,13,5,17,0.00,1,,309
2013-4-6,37,34,30,32,27,19,87,76,56,30.20,29.92,29.50,10,8,2,18,9,24,0.07,8,,130
2013-4-7,41,36,30,34,28,25,93,74,57,30.03,29.79,29.47,10,9,3,16,8,22,0.05,6,,322
2013-4-8,37,34,30,34,30,27,93,84,75,30.03,29.92,29.83,10,8,1,12,5,,0.12,5,,79
2013-4-9,39,34,30,36,29,21,93,82,64,30.17,30.09,30.04,10,6,0,16,3,25,0.00,8,,358
2013-4-10,44,37,30,25,20,10,75,56,31,30.18,30.14,30.10,10,10,10,16,10,24,0.00,4,,23
2013-4-11,33,30,28,25,19,16,86,61,48,30.12,30.00,29.79,10,9,0,29,14,38,0.00,5,,65
2013-4-12,32,29,26,27,25,21,93,84,80,29.80,29.71,29.65,10,3,1,23,12,30,0.02,8,,48
2013-4-13,37,30,23,28,24,19,93,79,56,29.94,29.76,29.70,10,7,0,13,3,20,0.00,7,,303
2013-4-14,35,26,17,28,23,12,93,78,65,30.07,29.98,29.85,10,10,1,17,6,22,0.00,3,,113
2013-4-15,51,42,33,39,32,23,93,73,35,29.87,29.74,29.58,10,8,2,24,13,29,0.11,4,,170
2013-4-16,50,40,33,28,26,25,70,56,40,30.35,30.08,29.87,10,10,10,20,8,26,0.00,6,,289
2013-4-17,42,32,23,30,27,19,93,74,57,30.43,30.31,30.05,10,10,10,16,5,20,0.00,4,,78
2013-4-18,42,37,35,37,34,28,93,87,65,30.05,29.67,29.28,10,6,2,15,9,21,0.08,8,,51
2013-4-19,41,33,24,39,26,12,93,73,51,29.74,29.30,29.10,10,8,0,33,13,45,0.01,8,,251
2013-4-20,37,29,21,16,12,9,68,52,33,30.43,30.13,29.74,10,10,10,18,12,26,0.00,2,,313
2013-4-21,39,31,23,30,23,16,81,66,49,30.54,30.45,30.30,10,10,10,18,9,25,0.00,3,,150
2013-4-22,39,37,35,37,34,28,93,84,65,30.29,30.21,30.12,10,6,2,13,7,20,0.25,8,,168
2013-4-23,42,37,30,36,31,25,93,80,57,30.12,29.95,29.86,10,7,0,14,6,22,0.02,8,,350
2013-4-24,46,35,26,30,24,18,87,63,34,29.98,29.94,29.90,10,10,10,14,6,20,0.00,1,,266
2013-4-25,51,40,30,34,28,21,87,63,30,30.22,30.02,29.83,10,10,2,17,8,26,0.05,6,,265
2013-4-26,51,40,28,36,31,21,87,70,54,30.26,30.19,30.11,10,10,5,23,6,29,0.02,3,,188
2013-4-27,57,42,30,45,36,27,93,74,58,30.18,30.12,30.04,10,9,3,17,4,24,0.00,1,,190
2013-4-28,62,48,33,39,35,28,87,60,39,30.04,29.92,29.81,10,10,5,12,5,,0.00,0,,161
2013-4-29,55,46,37,46,40,34,93,82,70,29.84,29.82,29.80,10,6,2,12,3,,0.07,6,,150
2013-4-30,57,50,42,48,45,39,93,79,67,29.82,29.76,29.71,10,7,2,20,10,31,0.09,5,Thunderstorm,163